Regional Weather Roundup
Issued by NWS Little Rock, AR

Home | Current Version | Previous Version | Graphics & Text | Print | Product List | Glossary On
Versions: 1 2 3 4 5 6 7 8 9 10 11 12 13 14 15 16 17 18 19 20 21 22 23 24 25 26 27 28 29 30 31
000
ASUS44 KLZK 201405
RWRLZK

WEATHER ROUNDUP FOR ARKANSAS
NATIONAL WEATHER SERVICE LITTLE ROCK AR
900 AM CDT SUN AUG 20 2017

NOTE: "FAIR" INDICATES FEW OR NO CLOUDS BELOW 12,000 FEET WITH NO
SIGNIFICANT WEATHER AND/OR OBSTRUCTIONS TO VISIBILITY.

ARZ001-003-010-029-201500-
NORTHWEST ARKANSAS

CITY           SKY/WX    TMP DP  RH WIND       PRES   REMARKS
FAYETTEVILLE   SUNNY     81  76  84 S6        30.07R HX  87
FORT SMITH     SUNNY     81  77  88 E6        30.04R HX  88
HARRISON       SUNNY     81  75  82 S3        30.08R HX  87
BENTONVILLE    SUNNY     81  72  74 SW6       30.07S
ROGERS         SUNNY     83  74  74 S9        30.08R HX  89
SILOAM SPGS    SUNNY     81  73  78 S9        30.06R HX  85
HIGHFILL       SUNNY     80  76  87 S7        30.07R HX  86
SPRINGDALE     SUNNY     81  75  83 S5        30.09R HX  86
$$

ARZ004-005-016-201500-
NORTH CENTRAL ARKANSAS

CITY           SKY/WX    TMP DP  RH WIND       PRES   REMARKS
BATESVILLE     CLOUDY    79  72  78 CALM      30.05R
FLIPPIN        MOSUNNY   81  72  74 SW6       30.03R
MTN HOME       MOSUNNY   80  76  87 W5        30.06R HX  86
$$

ARZ040-041-201500-
WEST CENTRAL ARKANSAS

CITY           SKY/WX    TMP DP  RH WIND       PRES   REMARKS
MENA           SUNNY     81  81 100 CALM      30.08R HX  91
MOUNT IDA      SUNNY     83  76  79 CALM      30.04R HX  91
$$

ARZ009-017-025-026-028-201500-
NORTHEAST ARKANSAS

CITY           SKY/WX    TMP DP  RH WIND       PRES   REMARKS
JONESBORO      CLOUDY    83  79  88 SE3       30.04R HX  94
NEWPORT        PTSUNNY   81  77  88 S8        30.05R HX  88
WALNUT RIDGE   CLOUDY    81  75  83 SE5       30.04R HX  86
BLYTHEVILLE    SUNNY     83  77  82 S6        30.06R HX  92
$$

ARZ022-023-033-042-044-201500-
CENTRAL ARKANSAS

CITY           SKY/WX    TMP DP  RH WIND       PRES   REMARKS
LITTLE ROCK    MOSUNNY   82  79  90 S6        30.05R HX  92
N LITTLE ROCK    N/A     83  78  83 W3        30.05R HX  93
JACKSONVILLE   SUNNY     82  79  89 CALM      30.04R HX  93
CONWAY           N/A     82  79  89 CALM      30.03R HX  93
SEARCY         SUNNY     81  78  91 CALM      30.06R HX  89
HOT SPRINGS    SUNNY     82  78  88 NW3       30.05R HX  91
RUSSELLVILLE   SUNNY     82  78  88 CALM      30.04R HX  91
CLINTON        FAIR      77  75  94 CALM      30.06R
$$

ARZ036-201500-
EAST ARKANSAS

CITY           SKY/WX    TMP DP  RH WIND       PRES   REMARKS
WEST MEMPHIS   MOSUNNY   81  78  91 CALM      30.04R HX  89
$$

ARZ050-053-066-070-073-201500-
SOUTHWEST ARKANSAS

CITY           SKY/WX    TMP DP  RH WIND       PRES   REMARKS
ARKADELPHIA    FAIR      81  78  91 CALM      30.04R HX  89
CAMDEN         SUNNY     84  75  74 CALM      30.03R HX  92
TEXARKANA      SUNNY     84  76  76 SW5       30.04R HX  93
EL DORADO      SUNNY     83  76  79 VRB3      30.04R HX  91
DE QUEEN       SUNNY     83  80  91 CALM      30.02R HX  95
$$

ARZ056-057-069-201500-
SOUTHEAST ARKANSAS

CITY           SKY/WX    TMP DP  RH WIND       PRES   REMARKS
PINE BLUFF     SUNNY     83  76  79 W6        30.05R HX  91
MONTICELLO     SUNNY     85  75  72 W6        30.04R HX  93

$$






USA.gov is the U.S. government's official web portal to all federal, state and local government web resources and services.